x

New Dungeness - 17 Nm Ne Of Port Angeles, Wa (46088) Wave Buoy

9:50 - Sat 27th May 2017 All times are PDT. -7 hours from GMT.

  • Sig Wave height 0.3ft
  • Average Period 5s
  • Wind
    2mph, 2mph gusts
  • Sea Temp 52°f
  • Air Temp 53°f
  • Sea Pressure 1019.1mb
  • New Dungeness - 17 Nm Ne Of Port Angeles, Wa
  • New Dungeness - 17 Nm Ne Of Port Angeles, Wa

More Historic Weather Station data

Upgrade to MSW Pro to gain access to the past 30 days of data for over 8000 Wavebouys and Weather Stations around the globe.

Join Pro

Comparision Forecast

View Surf forecast
   
sam. 05/27 9:50 0.3ft  -  5s 2 2 mph 1019.1mb 52f 53f
9:20 0.3ft  -  5s  -  2 mph 1019.1mb 51f 53f
8:50 0.3ft  -  5s  -  2 mph 1019mb 51f 53f
8:20 0.7ft  -  4s  -  0 mph 1018.6mb 51f 54f
7:50 0.7ft  -  4s  -  0 mph 1018.4mb 51f 52f
7:20 0.7ft  -  3s 2 2 mph 1018.1mb 50f 51f
6:50 0.7ft  -  4s 2 4 mph 1017.8mb 50f 51f
6:20 0.7ft  -  4s 2 2 mph 1017.5mb 50f 51f
5:50 0.7ft  -  3s 4 4 mph 1017.3mb 50f 51f
5:20 1ft 3s 3s 2 2 mph 1017.1mb 50f 51f
4:50 1ft 3s 3s 2 2 mph 1016.9mb 50f 51f
4:20 1ft 3s 3s 2 4 mph 1016.7mb 50f 51f
3:50 1ft 3s 3s 2 2 mph 1016.6mb 50f 51f
3:20 1ft 3s 3s 2 4 mph 1016.5mb 51f 51f
2:50 1ft 3s 3s 7 9 mph 1016.3mb 51f 52f
2:20 1.3ft 4s 3s 7 7 mph 1016.2mb 50f 52f
1:50 1.3ft 4s 3s 9 9 mph 1016mb 50f 53f
1:20 1.3ft 4s 4s 13 13 mph 1015.6mb 50f 53f
12:50 1.6ft 4s 4s 13 16 mph 1015.3mb 50f 53f
12:20 1.6ft 4s 4s 13 16 mph 1015.1mb 50f 53f
ven. 05/26 11:50 1.6ft 4s 4s 13 16 mph 1015.1mb 50f 53f
11:20 1.6ft 4s 4s 16 18 mph 1014.9mb 51f 53f
10:50 1.6ft 4s 3s 16 18 mph 1014.8mb 51f 54f
10:20 1.6ft 4s 3s 18 20 mph 1014.7mb 51f 54f
9:50 1.6ft 3s 3s 16 20 mph 1014.6mb 51f 54f
9:20 1.6ft 3s 3s 18 18 mph 1014.2mb 51f 53f
8:50 1.3ft 3s 3s 18 20 mph 1014mb 51f 54f
8:20 1.3ft 3s 3s 18 20 mph 1014mb 51f 54f
7:50 1.3ft 3s 3s 16 20 mph 1013.9mb 51f 55f
7:20 1.3ft 3s 3s 16 18 mph 1013.9mb 51f 55f
6:50 1.3ft 7s 4s 13 16 mph 1013.9mb 51f 55f
6:20 1ft 6s 5s 13 16 mph 1013.8mb 51f 56f
5:50 0.7ft  -  5s 13 16 mph 1014mb 52f 56f
5:20 0.7ft  -  4s 11 13 mph 1014.1mb 53f 55f
4:50 0.7ft  -  4s 11 13 mph 1014mb 53f 58f
4:20 0.7ft  -  5s 7 7 mph 1013.9mb 52f 58f
3:50 1ft 7s 5s 4 7 mph 1014mb 52f 58f
3:20 1.3ft 7s 5s 4 4 mph 1014.2mb 53f 57f
2:50 1.6ft 8s 6s 4 4 mph 1014.3mb 52f 58f
2:20 1.3ft 8s 6s 4 4 mph 1014.4mb 51f 57f
1:50 1.6ft 8s 7s 4 4 mph 1014.5mb 51f 55f
1:20 2.5ft 9s 8s 2 2 mph 1014.7mb 51f 54f
12:50 1.3ft 9s 6s 2 2 mph 1014.9mb 50f 54f
12:20 1.3ft 9s 7s 4 4 mph 1014.9mb 50f 53f
11:50 1ft 9s 7s 4 4 mph 1014.9mb 50f 53f
11:20 1ft 11s 7s 4 7 mph 1014.8mb 52f 53f
10:50 0.7ft  -  7s 4 4 mph 1014.9mb 51f 53f
10:20 0.7ft  -  6s 4 7 mph 1014.9mb 51f 53f
9:50 0.3ft  -  6s  -  2 mph 1014.8mb 51f 52f
9:20 0.7ft  -  4s 2 2 mph 1014.7mb 51f 52f
8:50 0.7ft  -  5s 2 2 mph 1014.4mb 50f 51f
8:20 0.3ft  -  4s 2 2 mph 1014.5mb 50f 52f
7:50 0.3ft  -  4s 2 2 mph 1014.3mb 50f 52f
7:20 0.3ft  -  4s 4 4 mph 1014.1mb 50f 52f
6:50 0.3ft  -  4s 4 4 mph 1013.9mb 50f 51f
6:20 0.3ft  -  3s 2 4 mph 1013.6mb 49f 50f
5:50 0.7ft  -  4s 2 4 mph 1013.4mb 49f 50f
5:20 0.7ft  -  4s 2 2 mph 1013.1mb 49f 50f
4:50 0.7ft  -  3s 4 4 mph 1012.7mb 49f 50f
4:20 0.7ft  -  4s 2 2 mph 1012.6mb 49f 50f
3:50 1ft 9s 3s 4 4 mph 1012.5mb 49f 50f
3:20 1ft 2s 3s 7 7 mph 1012.3mb 49f 51f
2:50 1ft 3s 3s 7 7 mph 1012.2mb 49f 51f
2:20 1.3ft 3s 3s 4 7 mph 1012.1mb 50f 52f
1:50 1ft 3s 3s 9 11 mph 1011.7mb 50f 52f
1:20 1ft 3s 3s 13 13 mph 1011.5mb 50f 52f
12:50 1.3ft 3s 3s 9 11 mph 1011.6mb 50f 52f
12:20 1.3ft 3s 3s 11 11 mph 1011.5mb 50f 52f
jeu. 05/25 11:50 1.3ft 4s 4s 11 11 mph 1011.4mb 50f 52f
11:20 1.3ft 4s 4s 11 13 mph 1011.3mb 50f 53f
10:50 1.6ft 4s 4s 11 13 mph 1011.3mb 50f 53f
10:20 1.3ft 4s 3s 13 16 mph 1011.1mb 50f 53f
9:50 1.3ft 3s 3s 13 18 mph 1010.8mb 50f 53f
9:20 1ft 3s 3s 16 18 mph 1010.4mb 50f 52f
8:50 1ft 3s 3s 16 18 mph 1010.3mb 50f 52f
8:20 1ft 3s 3s 13 18 mph 1010.3mb 50f 52f
7:50 1ft 3s 3s 13 16 mph 1010.4mb 50f 53f
7:20 1ft 2s 3s 13 13 mph 1010.2mb 50f 53f
6:50 0.7ft  -  5s 16 18 mph 1010mb 51f 54f
6:20 0.7ft  -  4s 11 13 mph 1010.2mb 51f 53f
5:50 0.7ft  -  4s 9 11 mph 1010.2mb 51f 55f
5:20 0.7ft  -  5s 7 7 mph 1010.1mb 51f 54f
4:50 0.7ft  -  5s 7 9 mph 1010.3mb 50f 54f
4:20 0.7ft  -  4s 7 7 mph 1010.4mb 51f 54f
3:50 1.3ft 5s 4s 4 7 mph 1010.8mb 51f 54f
3:20 1.6ft 6s 5s 7 9 mph 1011.2mb 52f 53f
2:50 2ft 8s 6s 7 7 mph 1011.3mb 51f 53f
2:20 3.5ft 8s 7s 4 7 mph 1011.6mb 52f 53f
1:50 3.5ft 8s 8s 4 4 mph 1011.9mb 51f 53f
1:20 3.5ft 9s 8s 4 4 mph 1012.1mb 51f 53f
12:50 3.5ft 10s 9s 4 4 mph 1012.3mb 51f 52f
12:20 2.5ft 10s 8s 4 4 mph 1012.5mb 50f 52f
11:50 2.5ft 9s 8s 2 2 mph 1012.6mb 50f 54f
11:20 1.3ft 9s 7s 2 2 mph 1012.7mb 52f 53f
10:50 1.3ft 10s 8s 2 4 mph 1012.7mb 52f 53f
10:20 1.6ft 11s 9s 2 2 mph 1012.8mb 52f 52f
9:50 1ft 11s 7s 4 4 mph 1013mb 50f 52f
9:20 0.7ft  -  6s 4 7 mph 1013mb 50f 51f
8:50 0.7ft  -  6s 4 4 mph 1013.1mb 50f 52f
8:20 0.7ft  -  5s  -  2 mph 1013mb 50f 51f
7:50 0.7ft  -  4s  -  2 mph 1013mb 50f 50f
7:20 0.3ft  -  4s  -  2 mph 1012.9mb 50f 50f
6:50 0.7ft  -  5s  -  0 mph 1012.8mb 49f 50f
6:20 0.3ft  -  5s  -  0 mph 1012.8mb 49f 49f
5:50 0.3ft  -  5s  -  0 mph 1012.6mb 49f 49f
5:20 0.7ft  -  5s 2 2 mph 1012.5mb 49f 49f
4:50 0.7ft  -  5s 4 4 mph 1012.5mb 50f 49f
4:20 0.7ft  -  4s 2 2 mph 1012.5mb 50f 50f
3:50 0.7ft  -  4s 4 4 mph 1012.4mb 50f 50f
3:20 0.7ft  -  4s 7 9 mph 1012.2mb 50f 50f
2:50 0.7ft  -  5s 9 9 mph 1012.3mb 50f 50f
2:20 1ft 10s 5s 9 9 mph 1012.4mb 50f 50f
1:50 0.7ft  -  6s 11 11 mph 1012.4mb 50f 50f
1:20 0.7ft  -  5s 9 11 mph 1012.5mb 50f 51f
12:50 0.7ft  -  5s 7 7 mph 1012.6mb 50f 51f
12:20 0.7ft  -  4s 4 4 mph 1012.9mb 50f 51f
mer. 05/24 11:50 0.7ft  -  4s 4 4 mph 1012.9mb 50f 50f
11:20 1ft 4s 4s 7 7 mph 1013.1mb 50f 51f
10:50 0.7ft  -  5s 4 7 mph 1013.3mb 50f 51f
10:20 0.7ft  -  5s 2 2 mph 1013.5mb 50f 51f
9:50 0.7ft  -  4s 2 2 mph 1013.5mb 50f 51f
9:20 0.7ft  -  4s 2 2 mph 1013.5mb 50f 52f
8:50 0.7ft  -  3s 2 2 mph 1013.5mb 51f 52f
8:20 0.7ft  -  4s 2 2 mph 1013.5mb 51f 53f
7:50 0.7ft  -  4s 2 4 mph 1013.5mb 51f 53f
7:20 0.7ft  -  4s  -  2 mph 1013.6mb 51f 53f
6:50 1ft 4s 4s 4 4 mph 1013.6mb 51f 53f
6:20 1ft 5s 4s 4 7 mph 1013.7mb 51f 53f
5:50 1ft 8s 4s 9 9 mph 1013.9mb 51f 53f
5:20 1ft 4s 3s 7 11 mph 1014mb 51f 53f
4:50 1ft 3s 3s 2 2 mph 1014.1mb 50f 55f
4:20 1.3ft 3s 3s 4 7 mph 1014.3mb 49f 55f
3:50 1.6ft 3s 3s 7 9 mph 1014.4mb 50f 55f
3:20 2.5ft 3s 4s 11 13 mph 1014.6mb 50f 54f
2:50 2.5ft 6s 4s 11 13 mph 1014.6mb 50f 53f
2:20 3ft 7s 4s 16 18 mph 1014.6mb 50f 54f
1:50 3.5ft 4s 4s 16 18 mph 1014.6mb 50f 53f
1:20 3.5ft 5s 4s 18 20 mph 1014.6mb 50f 53f
12:50 3.5ft 6s 4s 18 22 mph 1014.7mb 50f 52f
12:20 4ft 8s 5s 18 22 mph 1015.3mb 50f 52f
11:50 4ft 8s 5s 18 20 mph 1015.7mb 50f 52f
11:20 3.5ft 8s 5s 18 22 mph 1015.7mb 50f 52f
10:50 3ft 6s 5s 16 20 mph 1015.9mb 50f 52f
10:20 3ft 6s 5s 16 18 mph 1016.3mb 50f 51f
9:50 2.5ft 6s 5s 13 18 mph 1016.6mb 50f 51f
9:20 2.5ft 6s 5s 13 18 mph 1016.4mb 49f 51f
8:50 2.5ft 6s 5s 16 20 mph 1016.3mb 49f 50f
8:20 2.5ft 6s 5s 18 22 mph 1016.4mb 49f 50f
7:50 2.5ft 6s 5s 20 25 mph 1016.5mb 49f 50f
7:20 3ft 6s 5s 20 25 mph 1016.6mb 49f 50f
6:50 3.5ft 5s 5s 22 27 mph 1016.3mb 49f 51f
6:20 3.5ft 5s 4s 22 29 mph 1016.1mb 49f 51f
5:50 3.5ft 5s 4s 22 29 mph 1016mb 49f 51f
5:20 3.5ft 5s 4s 22 29 mph 1015.9mb 49f 50f
4:50 3.5ft 4s 4s 27 36 mph 1015.8mb 49f 51f
4:20 3.5ft 4s 4s 25 31 mph 1016mb 49f 50f
3:50 3ft 4s 4s 25 31 mph 1016mb 49f 50f
3:20 3.5ft 4s 4s 29 34 mph 1016.3mb 49f 50f
2:50 4ft 5s 4s 29 40 mph 1016.1mb 49f 50f
2:20 4.5ft 5s 4s 29 38 mph 1016.2mb 49f 50f
1:50 4.5ft 5s 4s 31 38 mph 1016.4mb 49f 51f
1:20 5ft 5s 4s 31 40 mph 1016.4mb 49f 51f
12:50 5.5ft 5s 5s 29 36 mph 1016.9mb 49f 51f
12:20 5.5ft 6s 5s 27 34 mph 1017mb 49f 51f
mar. 05/23 11:50 5ft 6s 5s 29 36 mph 1016.9mb 49f 51f
11:20 6ft 6s 5s 29 36 mph 1016.8mb 49f 51f
10:50 6ft 6s 5s 31 36 mph 1016.5mb 49f 51f
10:20 7ft 6s 5s 34 40 mph 1015.8mb 49f 51f
9:50 7ft 6s 5s 34 43 mph 1015.6mb 49f 51f
9:20 6.5ft 6s 5s 34 45 mph 1015.4mb 50f 51f
8:50 6ft 6s 5s 36 45 mph 1014.5mb 50f 51f
8:20 6ft 6s 5s 31 40 mph 1014.5mb 50f 52f
7:50 5.5ft 6s 5s 36 45 mph 1014.3mb 50f 52f
7:20 5.5ft 6s 5s 38 45 mph 1014.1mb 50f 52f
6:50 5ft 5s 4s 38 47 mph 1014mb 50f 53f
6:20 5ft 5s 4s 36 45 mph 1014.2mb 50f 53f